Tracking 35331 objects as of 16-Sep-2026
HD Live streaming from Space Station
objects crossing your sky now

STARLINK-30807

Track STARLINK-30807 now!
10-day predictions
STARLINK-30807 is classified as:


NORAD ID: 58192
Int'l Code: 2023-167T
Launch date: October 30, 2023
Source: United States (US)
Launch site: AIR FORCE EASTERN TEST RANGE (AFETR)
Your satellite tracking list
Your tracking list is empty




NASA's NSSDC Master Catalog

Two Line Element Set (TLE):
1 58192U 23167T   26258.76112341  .00014865  00000-0  54833-3 0  9992
2 58192  43.0032 150.0114 0001288 267.4329  92.6375 15.27596742160055
Source of the keplerian elements: AFSPC